Hourly Data Report for July 19, 2017

QUALICUM BEACH AIRPORT
BRITISH COLUMBIA

49°20'14.000" N
124°23'38.000" W
58.20 m
1026562
71766
VOQ

Download Data

Hourly Data (July 2017)
Hourly Data Report for July 19, 2017
TIME
LST
Temp Definition
°C
Dew Point Definition
°C
Rel Hum Definition
%
Precip. Amount Definition
mm

Wind Dir Definition
10's deg

Wind Spd Definition
km/h
Visibility Definition
km
Stn Press Definition
kPa
Hmdx Definition


Wind Chill Definition


Weather Definition


00:00 16.6 6.9 53 0.0 27 3   100.86     LegendNANA
01:00 14.5 8.1 65 0.0 25 6   100.89     LegendNANA
02:00 13.1 7.6 69 0.0 26 1   100.94     LegendNANA
03:00 16.3 5.9 50 0.0 26 11   100.96     LegendNANA
04:00 15.7 6.6 55 0.0 26 11   100.98     LegendNANA
05:00 14.8 7.0 60 0.0 25 6   101.03     LegendNANA
06:00 13.5 8.2 70 0.0 15 2   101.07     LegendNANA
07:00 18.0 8.9 55 0.0 24 4   101.10     LegendNANA
08:00 18.7 9.3 54 0.0 9 5   101.12     LegendNANA
09:00 18.8 12.1 65 0.0 7 7   101.12     LegendNANA
10:00 19.6 13.0 66 0.0 8 8   101.10     LegendNANA
11:00 19.7 12.0 61 0.0 8 10   101.07     LegendNANA
12:00 19.9 10.6 55 0.0 9 11   101.04     LegendNANA
13:00 20.3 10.1 52 0.0 9 11   101.01     LegendNANA
14:00 21.1 10.6 51 0.0 11 11   100.93     LegendNANA
15:00 21.9 9.6 45 0.0 10 9   100.90     LegendNANA
16:00 22.2 9.6 45 0.0 9 7   100.83     LegendNANA
17:00 22.1 9.9 46 0.0 8 5   100.76     LegendNANA
18:00 21.5 12.1 55 0.0 7 4   100.73     LegendNANA
19:00 20.4 13.2 63 0.0 6 3   100.75     LegendNANA
20:00 19.2 14.8 76 0.0 8 3   100.74     LegendNANA
21:00 18.9 14.6 76 0.0 0 1   100.77     LegendNANA
22:00 18.5 14.6 78 0.0 30 3   100.79     LegendNANA
23:00 17.9 14.2 79 0.0 0 1   100.81     LegendNANA

Notes on Data Quality.

Legend

  • E = Estimated
  • M = Missing
  • NA = Not Available*
  • [empty] = Indicates an unobserved value
Date modified: